FW7111 Weather Reports


Display with metric or nautical units.
time (UTC)temp
F
wind
direction
speed
MPH
gust
MPH
rain 1hr
in
rain 24hr
in
rain mn
in
humidity
%
barometer
mb
20260502233526 54 38 0.0 0.0 0.00 0.07 0.07 91 1011.6
20260502233026 54 38 0.0 0.0 0.00 0.07 0.07 91 1011.6
20260502232526 54 38 0.0 0.0 0.00 0.07 0.07 90 1011.6
20260502231525 54 39 0.0 0.0 0.00 0.07 0.07 89 1011.5
20260502231025 54 39 0.0 0.0 0.00 0.07 0.07 89 1011.3
20260502230525 54 39 0.0 0.0 0.00 0.07 0.07 89 1011.3
20260502225525 55 39 0.0 0.0 0.00 0.07 0.07 89 1011.4
20260502225026 55 39 0.0 0.0 0.00 0.07 0.07 89 1011.3
20260502224526 55 39 0.0 0.0 0.00 0.07 0.07 88 1011.3
20260502224025 55 39 0.0 0.0 0.00 0.07 0.07 87 1011.3
20260502223525 55 39 0.0 0.0 0.00 0.07 0.07 87 1011.3
20260502223035 55 39 0.0 0.0 0.00 0.07 0.07 87 1011.4
20260502222525 55 38 0.0 0.0 0.00 0.07 0.07 88 1011.3
20260502222025 55 40 0.0 0.0 0.00 0.07 0.07 88 1011.4
20260502221525 55 42 0.0 0.0 0.00 0.07 0.07 88 1011.4
20260502221032 55 38 0.0 1.0 0.00 0.07 0.07 87 1011.2
20260502220525 55 38 0.0 0.0 0.00 0.07 0.07 88 1011.1
20260502220026 55 38 0.0 1.0 0.00 0.07 0.07 86 1011.0
20260502215525 56 38 0.0 0.0 0.00 0.07 0.07 85 1011.0
20260502215030 56 41 0.0 0.0 0.00 0.07 0.07 84 1011.0
20260502214526 56 50 0.0 0.0 0.00 0.07 0.07 84 1011.0
20260502214026 56 54 0.0 1.0 0.00 0.07 0.07 84 1011.0
20260502213525 56 43 0.0 0.0 0.00 0.07 0.07 86 1011.1
20260502213026 55 39 0.0 0.0 0.00 0.07 0.07 86 1011.1
20260502212526 56 37 0.0 1.0 0.00 0.07 0.07 88 1010.9
20260502212025 56 37 0.0 0.0 0.00 0.07 0.07 85 1011.0
20260502211529 56 44 0.0 0.0 0.00 0.07 0.07 86 1010.8
20260502211025 56 44 0.0 1.0 0.00 0.07 0.07 84 1010.9
20260502210525 56 46 0.0 2.0 0.00 0.07 0.07 83 1011.0
20260502205525 56 36 0.0 1.0 0.00 0.07 0.07 85 1011.1
20260502204525 56 38 0.0 1.0 0.00 0.07 0.07 86 1011.1
20260502204025 56 53 0.0 1.0 0.00 0.07 0.07 85 1011.1
20260502203025 56 52 0.0 1.0 0.00 0.07 0.07 83 1011.2
20260502202525 56 41 0.0 2.0 0.00 0.07 0.07 83 1011.1
20260502202025 56 45 0.0 0.0 0.00 0.07 0.07 84 1011.1
20260502201525 56 49 0.0 2.0 0.00 0.07 0.07 83 1011.0
20260502201025 56 40 0.0 1.0 0.00 0.07 0.07 85 1011.0
20260502200525 56 44 0.0 1.0 0.00 0.07 0.07 84 1011.0
20260502200025 56 47 0.0 1.0 0.00 0.07 0.07 84 1011.2
20260502195525 56 48 0.0 1.0 0.00 0.07 0.07 84 1011.3
20260502195025 56 53 0.0 2.0 0.00 0.07 0.07 83 1011.3
20260502194525 56 43 0.0 0.0 0.00 0.07 0.07 85 1011.3
20260502193525 55 45 0.0 2.0 0.00 0.07 0.07 84 1011.5
20260502193025 55 44 0.0 3.0 0.00 0.07 0.07 85 1011.7
20260502192525 55 47 0.0 3.0 0.00 0.07 0.07 85 1011.7
20260502192025 55 58 0.0 2.0 0.00 0.07 0.07 85 1011.6
20260502191525 55 49 0.0 1.0 0.00 0.07 0.07 87 1011.6
20260502191025 55 43 0.0 0.0 0.00 0.07 0.07 89 1011.7
20260502190525 55 42 0.0 0.0 0.00 0.07 0.07 86 1011.8
20260502190025 55 57 0.0 3.0 0.00 0.07 0.07 86 1011.8
20260502185525 55 50 0.0 3.0 0.00 0.07 0.07 86 1011.8
20260502185025 55 59 0.0 3.0 0.00 0.07 0.07 88 1011.9
20260502184525 55 67 1.0 4.0 0.00 0.07 0.07 86 1012.0
20260502184025 55 55 0.0 4.0 0.00 0.07 0.07 89 1011.9
20260502183525 55 46 0.0 1.0 0.00 0.07 0.07 88 1011.9
20260502182525 54 43 0.0 1.0 0.00 0.07 0.07 89 1012.1
20260502182025 54 51 0.0 1.0 0.00 0.07 0.07 89 1012.2
20260502181525 54 54 0.0 1.0 0.00 0.07 0.07 88 1012.3
20260502164025 53 41 0.0 0.0 0.00 0.06 0.06 94 1013.0
20260502163525 52 56 1.0 3.0 0.00 0.06 0.06 93 1013.2
20260502163025 53 45 0.0 0.0 0.00 0.06 0.06 94 1013.2
20260502162525 53 44 0.0 0.0 0.00 0.06 0.06 94 1013.4
20260502162025 53 38 0.0 0.0 0.00 0.06 0.06 94 1013.4
20260502161525 52 43 0.0 1.0 0.00 0.06 0.06 94 1013.4
20260502161025 52 42 0.0 0.0 0.00 0.06 0.06 94 1013.5
20260502152025 53 43 0.0 1.0 0.02 0.06 0.06 95 1013.3
20260502151525 53 47 0.0 1.0 0.02 0.06 0.06 95 1013.2
20260502151025 52 51 0.0 1.0 0.02 0.06 0.06 94 1013.2
20260502130525 52 45 0.0 0.0 0.00 0.00 0.00 94 1012.4
20260502123525 52 40 0.0 0.0 0.00 0.00 0.00 93 1012.0
20260502123025 52 40 0.0 0.0 0.00 0.00 0.00 92 1011.8
20260502122525 52 39 0.0 0.0 0.00 0.00 0.00 92 1011.8
20260502121025 52 40 0.0 0.0 0.00 0.00 0.00 91 1012.0
20260502120525 52 43 0.0 1.0 0.00 0.00 0.00 91 1012.0
20260502115525 52 45 0.0 2.0 0.00 0.00 0.00 91 1011.9
20260502115025 53 40 0.0 0.0 0.00 0.00 0.00 91 1012.1
20260502114525 53 40 0.0 0.0 0.00 0.00 0.00 90 1012.1
20260502114025 53 40 0.0 0.0 0.00 0.00 0.00 90 1012.1
20260502113525 53 47 0.0 0.0 0.00 0.00 0.00 89 1012.1
20260502113025 53 42 0.0 0.0 0.00 0.00 0.00 88 1012.1
20260502112525 53 43 0.0 0.0 0.00 0.00 0.00 88 1012.2
20260502112025 53 46 0.0 0.0 0.00 0.00 0.00 86 1012.2
20260502111025 54 42 0.0 0.0 0.00 0.00 0.00 86 1012.2
20260502110525 54 40 0.0 0.0 0.00 0.00 0.00 85 1012.2
20260502105525 54 52 0.0 2.0 0.00 0.00 0.00 84 1012.2
20260502105025 54 43 0.0 0.0 0.00 0.00 0.00 85 1012.2
20260502104525 54 46 0.0 1.0 0.00 0.00 0.00 85 1012.2
20260502104025 54 42 0.0 0.0 0.00 0.00 0.00 86 1012.3
20260502103529 54 44 0.0 0.0 0.00 0.00 0.00 86 1012.3
20260502103025 54 32 0.0 0.0 0.00 0.00 0.00 85 1012.3
20260502102525 54 43 0.0 0.0 0.00 0.00 0.00 86 1012.3
20260502102025 54 45 0.0 0.0 0.00 0.00 0.00 86 1012.3
20260502101525 54 45 0.0 0.0 0.00 0.00 0.00 87 1012.3
20260502101025 54 50 0.0 0.0 0.00 0.00 0.00 87 1012.3
20260502091525 53 43 0.0 0.0 0.00 0.00 0.00 91 1012.1
20260502091025 53 36 0.0 0.0 0.00 0.00 0.00 91 1012.2
20260502090525 53 37 0.0 0.0 0.00 0.00 0.00 92 1012.2
20260502071525 53 44 0.0 0.0 0.00 0.00 0.00 92 1011.3
20260502071025 53 44 0.0 0.0 0.00 0.00 0.00 91 1011.2
20260502070525 53 44 0.0 0.0 0.00 0.00 0.00 92 1011.4
20260502070025 53 44 0.0 0.0 0.00 0.00 0.00 91 1011.3
20260502065525 53 44 0.0 0.0 0.00 0.00 0.00 92 1011.4
20260502064525 53 44 0.0 0.0 0.00 0.00 0.00 91 1011.5
20260502064025 53 44 0.0 0.0 0.00 0.00 0.00 91 1011.5
20260502063525 53 44 0.0 0.0 0.00 0.00 0.00 91 1011.5
20260502063025 53 44 0.0 0.0 0.00 0.00 0.00 91 1011.6
20260502062525 53 44 0.0 0.0 0.00 0.00 0.00 91 1011.7
20260502062025 53 44 0.0 0.0 0.00 0.00 0.00 91 1011.6
20260502061525 53 44 0.0 0.0 0.00 0.00 0.00 91 1011.8
20260502061025 53 44 0.0 0.0 0.00 0.00 0.00 91 1011.7
20260502060525 53 44 0.0 0.0 0.00 0.00 0.00 91 1011.7
20260502060025 53 44 0.0 0.0 0.00 0.00 0.00 91 1011.7
20260502055525 53 44 0.0 0.0 0.00 0.00 0.00 91 1011.7
20260502055025 53 44 0.0 0.0 0.00 0.00 0.00 91 1011.6
20260502054525 53 44 0.0 0.0 0.00 0.00 0.00 91 1011.9
20260502053525 53 44 0.0 0.0 0.00 0.00 0.00 91 1011.9
20260502053025 53 44 0.0 0.0 0.00 0.00 0.00 91 1011.9
20260502052525 53 44 0.0 0.0 0.00 0.00 0.00 91 1012.0
20260502052025 53 44 0.0 0.0 0.00 0.00 0.00 91 1012.1
20260502051525 53 44 0.0 0.0 0.00 0.00 0.00 91 1012.1
20260502050025 53 44 0.0 0.0 0.00 0.00 0.00 90 1012.2
20260502045025 53 44 0.0 0.0 0.00 0.00 0.00 90 1012.3
20260502044525 53 44 0.0 0.0 0.00 0.00 0.00 90 1012.3
20260502044025 53 44 0.0 0.0 0.00 0.00 0.00 90 1012.4
20260502043525 53 43 0.0 0.0 0.00 0.00 0.00 90 1012.4
20260502043025 53 43 0.0 0.0 0.00 0.00 0.00 90 1012.4
20260502042525 53 43 0.0 0.0 0.00 0.00 0.00 90 1012.4
20260502042025 53 43 0.0 0.0 0.00 0.00 0.00 89 1012.3
20260502041525 53 43 0.0 0.0 0.00 0.00 0.00 89 1012.5
20260502041025 53 43 0.0 0.0 0.00 0.00 0.00 89 1012.5
20260502040525 53 43 0.0 0.0 0.00 0.00 0.00 89 1012.5
20260502040025 53 43 0.0 0.0 0.00 0.00 0.00 89 1012.5
20260502035027 53 43 0.0 0.0 0.00 0.00 0.00 89 1012.6
20260502033525 53 43 0.0 0.0 0.00 0.00 0.00 89 1012.5
20260502033025 53 43 0.0 0.0 0.00 0.00 0.00 89 1012.5
20260502032525 53 43 0.0 0.0 0.00 0.00 0.00 89 1012.7
20260502032035 53 43 0.0 0.0 0.00 0.00 0.00 89 1012.6
20260502031525 53 44 0.0 0.0 0.00 0.00 0.00 89 1012.7
20260502031026 53 48 0.0 0.0 0.00 0.00 0.00 89 1012.7
20260502030525 53 48 0.0 0.0 0.00 0.00 0.00 89 1012.8
20260502025525 54 48 0.0 0.0 0.00 0.00 0.00 89 1012.9
20260502025025 53 48 0.0 0.0 0.00 0.00 0.00 88 1012.8
20260502024525 53 49 0.0 0.0 0.00 0.00 0.00 88 1012.9
20260502023525 54 48 0.0 0.0 0.00 0.00 0.00 87 1012.8
20260502023025 54 45 0.0 0.0 0.00 0.00 0.00 86 1013.1
20260502022539 54 45 0.0 0.0 0.00 0.00 0.00 86 1013.1
20260502022025 54 45 0.0 0.0 0.00 0.00 0.00 86 1013.2
20260502021526 54 45 0.0 0.0 0.00 0.00 0.00 86 1013.0
20260502021025 54 46 0.0 0.0 0.00 0.00 0.00 86 1013.0
20260502020526 54 46 0.0 0.0 0.00 0.00 0.00 86 1013.1
20260502020026 54 46 0.0 0.0 0.00 0.00 0.00 86 1013.0
20260502015525 54 46 0.0 0.0 0.00 0.00 0.00 86 1013.0
20260502015026 54 46 0.0 0.0 0.00 0.00 0.00 86 1013.0
20260502014026 54 46 0.0 0.0 0.00 0.00 0.00 86 1012.9
20260502013526 54 46 0.0 0.0 0.00 0.00 0.00 86 1012.8
20260502013026 54 46 0.0 0.0 0.00 0.00 0.00 86 1013.0
20260502012526 54 49 0.0 0.0 0.00 0.00 0.00 85 1013.0
20260502012025 54 49 0.0 0.0 0.00 0.00 0.00 85 1013.1
20260502011527 54 49 0.0 0.0 0.00 0.00 0.00 85 1012.9
20260502011026 54 51 0.0 0.0 0.00 0.00 0.00 85 1012.7
20260502010525 54 47 0.0 0.0 0.00 0.00 0.00 85 1012.5
20260502005530 54 50 0.0 0.0 0.00 0.00 0.00 86 1012.5
20260502004527 54 37 0.0 0.0 0.00 0.00 0.00 86 1012.6
20260502004025 54 39 0.0 0.0 0.00 0.00 0.00 86 1012.3
20260502003526 54 39 0.0 0.0 0.00 0.00 0.00 86 1012.2
20260502003025 54 38 0.0 0.0 0.00 0.00 0.00 86 1012.3
20260502002526 54 38 0.0 0.0 0.00 0.00 0.00 86 1012.1
20260502002054 54 38 0.0 0.0 0.00 0.00 0.00 86 1012.1
20260502001525 54 38 0.0 0.0 0.00 0.00 0.00 85 1012.2
20260502001025 54 37 0.0 0.0 0.00 0.00 0.00 85 1012.1
20260502000525 54 42 0.0 0.0 0.00 0.00 0.00 84 1012.2
20260502000025 54 42 0.0 0.0 0.00 0.00 0.00 84 1012.2
20260501235526 54 43 0.0 0.0 0.00 0.00 0.00 83 1012.3
20260501235025 54 46 0.0 0.0 0.00 0.00 0.00 83 1012.2
20260501234525 54 43 0.0 0.0 0.00 0.00 0.00 82 1012.1
20260501234026 55 39 0.0 0.0 0.00 0.00 0.00 82 1012.2